Wind_Speed
31 30 28 25 23 23 24 22 21 20 19 18 18 16 15 13 11 9 9 9 10 11 11 10 10 10 10 10 9 7 6 7 6 6 5 3 2 4 8 10 12 12 11 9 9 8 7 6 5 4 4 3 2 2 2 2 0 2 3 3 3 4 5 6 7 9 9 8 6 5 5 3 2 1 1 3 4 4 4 4 7 6 6 10 10
39 36 31 26 23 23 23 22 20 19 18 17 16 14 13 10 8 7 7 8 11 12 10 10 11 11 10 10 10 8 7 10 10 8 6 4 4 4 6 9 10 10 10 8 7 7 7 6 6 5 5 4 2 1 2 3 2 1 3 3 4 3 2 4 6 6 6 6 5 4 4 4 1 0 2 4 4 3 3 1 2 9 6 4 8
41 38 31 25 23 23 22 21 20 18 17 16 14 12 10 8 7 6 8 10 12 12 9 8 10 11 8 7 8 8 10 12 12 9 6 6 7 6 5 7 9 9 10 9 7 7 7 7 6 6 7 6 5 2 1 2 1 2 3 4 5 2 2 3 4 5 5 5 5 5 5 5 3 1 3 3 3 2 1 3 3 7 8 4 3
41 37 27 24 23 22 21 20 19 18 16 14 12 9 8 7 6 7 9 11 12 13 10 5 5 9 8 7 6 6 10 12 11 10 7 7 7 7 7 6 7 9 9 9 8 8 8 7 7 7 8 8 6 4 2 3 3 4 3 4 5 3 5 3 3 4 4 4 4 5 6 6 4 1 1 2 1 2 6 6 5 2 7 6 3
41 34 25 24 23 22 20 19 18 17 15 12 10 8 8 6 6 7 10 13 13 14 11 5 1 3 6 5 4 6 10 10 9 9 7 6 6 7 8 7 7 8 8 8 8 8 7 7 6 5 4 2 3 2 4 3 3 4 3 3 5 5 5 3 2 3 4 4 4 6 6 6 5 4 3 5 6 7 10 9 7 3 6 4 5
40 31 25 24 23 22 20 18 17 16 14 11 9 8 7 5 5 7 11 14 15 14 12 7 0 1 1 4 5 7 9 9 9 8 7 6 6 8 8 7 7 7 7 7 7 7 5 4 3 1 3 3 2 3 2 1 3 3 1 2 4 5 4 3 3 4 5 4 7 8 6 6 6 6 6 7 9 9 12 10 6 4 3 2 6
37 29 25 24 23 22 20 18 16 15 12 9 8 8 7 5 5 8 12 15 15 15 12 8 4 2 2 3 4 7 9 10 9 8 8 7 8 9 8 7 7 7 7 7 5 6 4 3 4 3 1 2 0 3 3 3 3 2 1 2 5 5 3 3 5 6 5 5 8 8 6 6 6 6 6 8 8 9 12 9 5 3 1 2 6
34 27 24 23 22 21 20 18 16 14 11 9 9 8 6 5 6 9 13 15 15 14 11 8 7 6 4 5 7 9 10 10 9 8 7 7 8 9 9 7 7 7 6 7 6 6 6 4 5 5 3 3 2 3 2 2 3 2 2 2 4 5 2 3 4 7 6 7 9 8 6 7 7 6 8 10 8 8 9 8 6 2 2 3 6
31 26 24 22 21 20 18 17 15 12 9 8 8 8 6 5 6 9 13 15 14 14 11 9 9 8 9 10 11 12 11 10 9 6 5 6 7 8 9 7 7 6 6 8 8 6 6 6 6 6 5 5 5 4 2 2 3 4 5 5 5 5 4 4 5 7 7 6 8 8 7 8 7 6 7 12 10 9 8 7 6 3 1 3 3
29 25 23 21 19 18 17 15 12 10 8 8 7 7 6 5 6 9 13 14 14 13 12 11 10 10 12 13 13 14 13 10 8 6 4 4 4 6 7 7 7 6 6 9 8 5 5 5 6 6 5 6 4 4 4 5 7 8 8 8 7 7 6 7 7 8 8 6 7 9 9 9 9 7 7 11 11 10 10 9 5 1 2 3 1
28 26 23 21 19 17 15 13 10 9 7 7 7 6 5 5 6 10 13 13 13 13 13 12 12 12 13 14 15 15 12 8 7 6 4 4 4 5 6 6 6 6 6 7 8 7 5 4 5 5 6 5 4 5 6 6 7 6 5 5 5 5 4 7 8 9 9 7 6 9 9 10 10 10 9 10 11 11 11 10 3 3 2 2 2
29 26 23 20 18 17 15 12 9 8 7 7 7 6 5 5 7 11 12 13 13 13 14 14 13 13 14 15 15 15 11 6 6 6 5 6 6 7 7 8 9 8 6 7 8 7 5 3 3 4 6 6 6 6 4 3 2 1 4 5 4 1 3 6 7 8 11 12 10 10 10 11 12 12 13 11 10 10 9 10 4 5 2 0 2
28 26 22 20 18 17 15 11 9 8 7 7 7 6 5 5 8 11 11 12 13 14 15 14 15 15 14 14 15 16 13 7 7 8 9 9 9 10 11 12 12 11 10 10 9 7 5 3 1 2 3 2 2 3 1 2 3 3 5 3 1 6 7 6 6 7 9 12 13 11 11 12 12 11 14 11 10 10 7 8 6 5 4 1 1
27 25 22 19 18 17 14 10 9 8 8 7 7 6 5 6 9 10 10 11 14 15 14 13 14 15 14 14 15 17 16 11 9 11 11 12 11 11 12 13 14 13 14 13 11 8 6 5 4 5 6 6 4 3 3 4 4 5 4 3 6 10 10 7 7 7 6 9 12 13 12 13 11 11 14 11 8 9 7 6 4 4 7 6 7
26 24 20 18 17 16 12 9 8 8 7 7 7 5 5 7 9 9 9 11 13 14 14 13 13 13 14 14 15 17 18 14 12 12 12 11 11 12 12 13 13 12 12 12 10 9 9 9 9 8 9 8 7 6 5 4 4 4 5 8 10 13 12 8 7 6 5 5 9 12 13 13 11 10 15 11 7 8 8 8 6 7 9 10 13
24 22 19 16 16 14 11 8 8 7 6 7 6 5 6 8 8 9 9 10 13 14 15 15 14 14 15 15 16 18 18 17 15 14 12 12 13 14 14 14 13 12 12 12 11 11 12 12 11 12 12 10 9 7 6 5 5 7 10 13 13 14 12 9 7 5 5 4 4 8 12 13 11 11 15 13 8 7 10 13 15 13 10 12 14
23 21 17 15 15 13 9 6 7 6 6 6 5 5 7 8 8 8 9 10 12 14 15 15 16 17 18 18 19 20 20 19 18 17 16 15 17 18 19 18 16 15 16 15 15 13 13 13 13 13 12 11 9 7 7 8 10 12 14 15 15 15 11 9 7 4 4 4 4 4 8 12 12 13 16 15 11 9 11 17 20 15 12 13 15
23 20 16 13 13 11 7 5 6 5 5 5 5 6 7 7 8 9 10 11 13 15 16 18 20 22 23 23 23 23 23 22 22 21 21 20 22 23 24 23 21 21 20 18 16 16 18 20 20 20 19 17 15 14 13 14 15 16 16 17 18 15 11 8 5 4 4 3 3 3 6 8 9 10 13 14 12 11 13 15 14 11 11 14 14
22 18 14 12 12 9 5 4 5 4 5 5 6 6 7 8 9 10 11 13 16 18 20 24 26 28 28 28 27 26 25 24 24 24 24 24 24 24 25 26 25 24 22 21 22 26 30 32 33 33 30 27 25 23 21 19 19 18 19 19 19 17 13 7 2 3 4 3 3 4 6 8 7 7 8 10 10 8 9 8 8 10 13 14 13
21 17 12 11 11 8 4 3 3 3 4 5 6 7 8 9 11 12 14 16 19 23 26 30 32 32 31 32 31 29 27 27 26 26 26 28 27 25 25 28 29 27 26 28 32 36 37 37 38 40 39 37 35 31 28 25 23 21 21 20 21 20 15 6 1 3 3 4 4 3 5 6 6 6 6 6 6 3 1 3 8 13 16 17 13
20 15 10 9 9 6 4 2 3 3 4 5 7 8 9 11 14 16 18 21 24 27 29 31 33 34 35 35 32 28 29 30 28 27 29 30 30 28 27 29 31 31 31 32 33 36 37 36 37 39 40 41 42 41 37 33 29 26 23 22 23 22 19 12 4 3 5 6 6 5 5 4 4 4 2 2 3 3 2 5 10 12 13 14 12
19 13 8 7 7 5 3 2 4 5 5 6 7 9 11 15 19 21 24 26 29 31 31 30 31 32 32 33 31 28 30 32 28 28 30 31 31 31 32 33 34 35 35 35 34 34 34 34 36 38 38 38 41 45 45 42 38 33 29 26 26 26 22 17 10 6 8 9 9 9 7 6 5 4 3 2 2 3 5 7 7 7 8 10 12
18 11 5 5 5 4 2 2 5 6 7 7 8 10 15 20 24 27 29 30 32 33 33 33 32 30 29 27 28 29 31 33 32 33 35 34 34 36 37 37 37 37 36 36 35 35 34 34 36 37 38 38 38 41 44 45 44 40 38 35 33 32 26 20 17 13 13 13 12 12 10 8 7 7 7 7 8 9 9 9 9 9 9 10 10
16 7 3 4 3 3 1 3 6 8 9 9 9 12 19 25 28 31 32 32 32 32 32 33 34 34 33 28 25 28 32 35 36 37 39 38 37 38 37 36 35 33 32 33 33 35 35 35 37 38 39 41 40 39 39 40 43 44 44 43 41 39 34 28 26 23 21 20 18 18 16 15 14 14 14 16 17 17 17 16 15 13 11 9 7
12 3 1 2 3 3 1 4 7 10 11 10 10 16 24 28 31 32 32 31 30 31 31 32 33 34 34 29 26 29 33 35 36 35 35 35 34 34 34 33 32 30 30 31 32 34 35 37 38 39 39 39 41 41 40 39 41 43 44 45 44 43 41 38 37 36 34 32 30 29 27 26 25 24 23 23 24 23 22 20 18 16 14 12 10
8 1 2 1 3 3 3 5 9 11 13 12 13 20 27 30 32 32 30 29 28 28 29 29 30 31 30 28 27 28 29 29 31 32 32 33 33 33 32 32 33 33 32 32 32 34 35 36 37 37 37 38 39 40 41 41 41 41 42 43 43 43 42 41 41 41 41 40 39 38 37 36 35 34 33 32 31 30 28 26 23 21 18 16 15
3 3 4 1 4 4 5 7 10 12 14 13 16 23 29 31 33 32 31 29 28 27 27 28 28 29 29 28 27 27 27 26 27 29 29 31 33 33 32 32 34 33 33 34 34 34 35 36 37 37 38 39 40 41 41 41 41 41 41 41 42 42 42 40 39 39 39 38 38 38 38 38 37 37 37 36 36 35 34 33 31 28 26 24 22
1 6 5 3 5 5 7 9 12 14 15 15 18 26 30 32 33 33 32 32 31 30 29 29 29 30 29 29 28 28 28 26 25 27 28 30 31 30 30 32 34 32 32 35 35 35 36 36 37 38 39 40 41 41 42 42 42 41 41 41 41 41 41 39 38 38 38 37 36 36 35 35 35 34 34 33 33 34 34 33 33 32 31 30 29
5 8 6 5 6 6 9 11 13 14 15 16 21 27 31 33 33 33 32 31 31 30 30 30 30 30 29 28 26 26 26 26 25 27 28 29 29 28 29 31 33 34 34 35 35 35 36 36 37 37 38 39 39 40 40 40 41 41 41 41 41 41 40 40 39 38 37 37 36 35 35 34 33 32 31 30 30 30 30 30 30 30 30 30 29
7 8 7 6 6 8 10 12 14 15 16 17 22 28 31 32 33 33 31 29 29 28 28 29 29 28 28 27 24 24 25 26 26 27 28 28 29 28 29 31 33 34 34 34 34 34 34 34 35 36 36 37 38 38 38 38 38 38 38 39 39 39 39 39 38 37 36 36 35 35 35 34 33 32 31 30 29 28 28 28 27 27 27 27 27
7 8 7 6 7 9 11 13 14 16 17 18 23 29 31 32 33 32 30 28 27 26 26 26 28 28 27 26 24 24 25 25 26 27 28 28 27 27 28 30 32 32 33 33 32 32 32 33 33 34 35 35 36 36 37 37 37 36 36 37 37 37 37 36 36 36 35 34 34 34 33 32 31 31 30 29 28 27 27 27 26 26 25 25 25
6 7 7 7 8 10 12 14 16 17 18 19 24 28 31 32 32 31 29 26 25 25 25 25 26 27 28 27 25 25 26 27 27 28 28 26 26 26 27 28 30 30 30 30 30 31 31 31 32 33 33 34 34 35 36 36 36 36 35 35 35 35 35 34 34 34 33 33 32 31 30 29 28 28 27 27 26 26 25 25 25 24 24 24 24
6 6 6 7 9 10 12 15 17 18 19 21 24 27 30 31 31 30 28 25 23 23 24 25 25 26 28 28 28 28 30 30 29 27 26 26 25 25 26 26 27 27 26 28 29 30 30 30 31 31 32 32 33 34 35 35 35 35 34 34 34 34 34 33 33 32 32 31 30 29 27 26 26 25 25 24 24 23 23 23 22 22 22 22 22
5 6 6 8 10 11 13 16 18 19 20 22 24 27 29 30 30 29 26 23 21 21 22 23 24 25 27 29 30 30 31 31 29 27 25 25 25 25 26 25 24 25 26 27 28 29 29 29 29 29 30 30 31 32 33 33 33 33 33 33 33 33 33 32 32 31 30 30 28 27 25 24 23 23 22 21 21 21 20 19 19 19 18 18 18
5 5 7 9 11 12 15 17 18 19 20 23 24 26 27 28 28 27 25 22 19 18 19 21 22 23 25 27 30 30 31 30 29 26 23 23 23 23 25 25 24 26 26 25 25 26 26 27 28 28 28 28 29 30 31 31 31 32 32 32 32 32 31 31 31 30 29 28 27 25 24 22 21 21 20 19 19 18 17 16 16 15 14 14 13
4 5 6 9 11 13 17 17 18 20 21 23 24 25 26 26 26 25 23 20 18 16 16 19 21 21 23 25 27 29 29 29 28 26 22 21 22 22 24 25 25 26 25 24 24 23 23 25 26 26 26 27 28 28 28 29 30 30 31 31 31 30 30 30 30 30 29 28 27 25 23 21 20 19 18 17 16 16 15 14 13 12 11 10 10
3 5 7 9 11 14 18 18 18 20 22 23 24 24 25 25 24 23 21 19 17 15 15 17 19 20 22 23 25 26 27 27 27 26 22 20 21 22 23 24 24 23 21 21 23 23 22 23 24 25 26 26 26 27 27 27 28 29 30 30 30 30 30 30 30 30 30 29 27 25 23 21 20 18 17 17 16 15 15 14 13 12 10 9 8
3 5 7 9 11 15 18 19 19 21 23 24 23 24 24 24 23 22 20 18 16 15 14 16 17 19 21 22 23 24 25 25 25 25 22 19 19 21 23 24 23 21 19 18 19 21 22 22 23 25 25 24 24 25 26 27 28 28 29 29 29 29 30 31 31 32 31 29 27 25 23 22 20 19 18 17 17 16 15 14 14 13 12 11 9
2 4 6 8 11 15 18 19 20 22 24 24 23 23 23 23 22 21 20 18 16 15 14 15 17 19 20 21 22 22 23 23 23 24 23 20 19 20 22 23 23 21 19 18 18 20 22 22 23 25 25 24 24 25 26 27 27 28 28 29 29 30 30 31 32 33 32 31 28 26 24 22 21 21 20 19 18 17 16 15 14 13 12 12 11
3 4 6 8 10 14 17 18 20 24 25 24 23 23 23 22 22 21 20 19 17 15 14 15 17 19 20 21 21 21 21 21 22 22 22 21 19 19 21 22 22 20 18 17 18 19 20 21 23 25 24 24 25 25 26 27 27 28 28 29 29 30 30 32 33 34 33 32 29 27 25 23 22 21 21 20 19 18 17 16 15 14 12 11 11
3 4 7 9 11 14 18 19 21 24 26 25 23 22 22 22 21 21 20 18 17 15 15 16 18 20 19 19 20 20 20 20 20 20 21 21 20 20 21 21 20 20 19 17 17 17 18 19 22 23 23 24 25 26 26 27 27 28 28 29 29 30 31 32 33 34 35 34 30 27 26 24 23 22 22 21 20 20 19 18 16 15 13 12 11
3 5 7 10 12 15 19 20 21 25 27 26 24 23 22 21 21 20 19 18 17 16 16 17 19 19 18 18 18 18 19 19 19 19 20 20 20 20 20 20 19 19 19 18 18 18 18 18 20 21 22 23 24 25 25 26 27 27 28 29 30 30 31 32 33 34 35 35 31 28 26 24 23 23 23 22 22 21 20 19 18 16 14 13 12
5 5 7 10 12 16 19 21 22 25 27 27 25 23 22 20 19 19 18 17 17 17 18 18 18 18 18 17 17 17 17 18 18 18 18 19 20 19 19 18 18 18 18 18 18 18 17 16 18 20 21 22 22 23 24 24 25 26 28 29 30 30 31 31 33 34 35 35 32 28 25 25 24 23 23 23 23 23 22 21 20 19 17 14 13
5 4 5 8 12 15 19 20 22 24 26 26 25 24 21 19 18 17 17 17 17 18 19 19 18 17 16 16 16 16 16 17 17 17 17 18 18 18 18 17 17 16 17 17 17 17 16 16 17 18 19 20 20 21 22 22 23 25 26 28 29 29 30 31 32 33 35 36 33 28 25 25 25 24 24 25 25 25 25 25 24 23 21 17 14
7 6 5 7 11 15 17 19 20 22 24 25 25 23 21 18 18 17 18 18 19 19 19 18 17 16 15 15 15 15 15 16 16 16 15 16 16 16 16 15 15 15 15 16 15 15 15 15 16 15 16 17 18 19 20 20 22 23 25 26 28 29 29 30 31 33 35 36 33 29 26 26 26 25 26 27 27 27 27 27 27 26 25 21 16
8 9 8 8 11 15 16 18 20 21 23 24 24 23 21 19 18 19 19 20 20 19 18 17 16 15 13 13 13 14 14 15 15 15 14 14 14 15 14 14 14 14 14 14 13 13 13 13 13 13 14 15 16 17 18 19 20 22 23 25 26 27 28 29 30 32 34 35 34 30 27 26 26 26 27 28 28 29 29 29 30 29 27 23 18
10 10 10 10 12 14 15 17 19 20 22 23 23 23 22 21 21 21 22 22 21 19 17 15 14 13 12 12 12 12 13 13 14 14 13 13 13 13 13 13 12 12 12 12 12 11 11 11 11 11 12 13 14 15 16 18 19 20 22 24 25 26 27 28 29 31 33 35 34 31 28 27 27 27 28 29 29 30 30 31 31 31 29 25 20
11 11 10 10 11 12 14 17 18 20 21 22 23 23 23 23 23 23 22 21 19 18 16 15 13 12 11 11 11 11 11 12 12 12 12 11 11 11 12 12 12 11 10 10 10 9 9 9 9 10 10 11 13 14 16 17 19 20 21 23 24 25 26 27 28 30 32 34 34 32 29 27 27 28 28 29 30 31 32 32 33 32 30 26 22
11 12 10 10 11 12 14 16 18 20 21 22 23 24 25 25 25 23 21 19 18 17 15 14 13 11 10 10 10 10 10 11 11 11 11 10 10 10 10 10 10 10 9 8 8 7 7 7 7 8 9 10 12 13 15 17 18 19 21 22 24 24 25 25 27 29 30 33 34 33 30 28 27 28 28 29 30 31 32 33 33 33 31 27 24
11 13 13 12 13 14 14 16 18 20 21 22 23 24 25 25 24 22 20 19 17 16 14 13 12 10 9 9 8 8 9 9 10 10 10 9 9 8 8 8 8 8 7 6 6 6 5 5 6 7 8 9 11 12 14 16 17 18 20 22 23 23 24 25 26 27 29 31 33 33 30 28 27 27 28 29 30 32 32 33 34 34 31 28 26
12 13 14 13 14 15 15 17 19 21 22 23 23 24 24 24 22 21 19 18 17 15 13 12 11 10 9 8 7 7 7 7 8 8 8 8 8 7 7 6 6 5 5 5 5 4 4 4 5 6 8 9 10 12 13 15 16 17 19 21 22 22 24 24 25 26 28 30 32 33 31 28 27 27 28 29 30 32 33 34 34 34 32 29 27
Wind_Direction
342 338 333 328 328 325 325 329 329 324 319 314 310 310 308 306 304 300 303 309 323 336 344 4 25 35 39 39 41 37 42 50 48 55 57 67 126 178 185 189 192 189 185 184 187 196 204 208 217 235 255 260 255 243 235 238 259 60 57 64 72 86 98 114 130 139 158 168 175 171 162 184 152 108 62 30 25 68 110 104 107 96 17 339 325
343 340 335 333 332 328 327 329 330 326 320 315 313 313 309 310 313 314 323 333 343 350 4 33 33 27 26 26 36 43 57 54 43 44 50 71 102 138 173 182 186 185 180 175 181 192 197 206 224 243 250 234 208 201 221 227 211 114 83 79 70 69 114 149 151 146 155 167 177 173 182 210 226 178 77 33 13 53 107 84 130 115 85 346 320
341 338 335 335 335 330 328 328 329 326 321 318 316 314 315 320 322 327 343 348 351 357 13 43 29 15 13 30 45 45 46 38 32 39 53 78 93 105 135 165 176 176 172 173 178 187 198 211 228 241 242 230 213 200 216 228 173 103 103 107 89 79 214 184 157 147 154 174 188 192 200 211 232 289 43 11 355 35 205 224 195 128 116 106 352
340 340 338 339 337 332 329 328 328 328 324 322 321 321 326 328 329 345 356 356 357 1 8 39 47 31 34 57 60 18 13 16 30 46 60 78 89 95 105 135 157 165 172 178 181 190 202 214 234 248 249 244 225 201 107 81 68 47 66 117 118 175 225 214 150 146 160 175 196 198 200 206 205 240 6 312 252 218 254 232 223 153 111 102 15
343 343 342 342 339 334 330 328 329 329 328 329 333 336 335 331 337 354 1 359 359 2 3 10 117 66 35 22 8 350 3 26 51 60 67 81 92 99 101 114 136 156 170 176 183 195 207 224 241 257 269 259 218 143 91 71 6 3 20 122 141 186 217 212 139 146 163 168 203 202 202 213 194 192 211 236 218 214 248 241 229 199 110 77 354
345 344 343 344 338 334 330 329 332 332 334 340 344 342 335 329 339 357 2 0 1 4 5 11 345 185 10 328 338 10 35 66 87 94 101 109 111 107 104 110 126 144 159 168 185 197 209 225 206 42 39 77 79 52 55 317 311 328 12 126 162 194 216 212 163 158 175 185 214 210 208 214 200 209 211 227 237 233 244 242 214 175 125 20 346
346 345 346 345 339 334 331 332 336 336 341 347 349 342 332 326 340 358 2 1 3 5 10 22 27 351 333 329 5 45 67 88 109 120 120 122 120 113 108 113 124 131 145 159 175 182 188 180 137 114 73 123 41 353 330 298 286 265 201 170 194 199 224 235 186 183 199 213 225 216 209 214 218 226 207 213 242 255 246 235 199 169 49 330 334
346 346 347 345 339 334 332 335 338 340 346 352 352 342 331 325 341 359 2 2 5 10 17 31 38 34 38 45 59 74 82 90 101 112 121 132 135 128 121 125 130 127 135 147 151 156 167 166 154 170 198 222 254 280 287 314 303 268 219 208 216 206 237 274 212 204 203 216 234 229 224 233 235 218 191 194 215 263 253 221 224 290 347 312 337
346 347 348 346 340 335 333 337 338 340 347 356 354 339 326 326 341 0 2 3 9 15 25 38 44 51 64 70 76 80 78 83 89 102 130 143 143 132 127 131 132 126 133 144 144 152 171 182 182 182 203 242 247 247 271 316 292 276 259 258 256 236 236 259 235 207 190 206 240 238 233 236 222 190 186 195 205 260 258 225 257 341 21 314 341
347 346 349 346 340 335 334 338 337 337 348 358 353 336 325 326 343 1 3 7 15 23 33 45 56 65 73 76 79 80 78 81 83 92 124 132 123 117 120 123 122 117 130 141 139 154 190 193 183 184 220 248 245 253 269 268 257 257 259 259 259 253 235 234 228 201 182 190 240 244 231 227 213 182 188 202 214 259 256 239 264 30 57 353 332
348 346 347 346 340 335 335 339 336 334 350 0 355 343 333 333 353 4 7 13 22 32 41 51 66 71 74 80 82 83 83 87 92 93 98 101 96 96 101 106 111 111 131 148 147 163 193 183 174 211 255 267 257 257 259 253 248 249 265 281 273 266 228 204 203 193 175 173 226 248 231 224 216 198 208 218 233 260 257 247 239 114 52 337 221
348 346 347 345 340 336 337 341 335 336 353 2 1 354 344 346 4 9 12 19 29 40 47 57 72 74 76 84 89 92 93 101 107 98 89 93 89 85 85 90 101 110 131 149 153 166 178 180 199 257 280 281 259 252 260 249 226 299 330 320 295 263 139 156 170 177 170 170 200 232 229 222 217 210 217 221 233 255 268 253 202 124 108 296 180
349 346 346 344 340 337 338 342 335 338 357 5 8 4 356 3 14 14 18 26 34 45 51 61 74 75 78 85 94 100 102 104 104 96 91 91 88 87 88 90 96 104 115 123 132 144 148 164 194 328 342 343 231 204 130 80 79 26 0 344 138 124 129 139 147 161 169 175 189 212 224 219 217 216 211 210 229 247 271 250 202 165 186 210 71
349 346 346 344 340 337 337 341 336 343 1 6 12 13 11 20 21 19 26 34 39 48 54 63 75 77 80 85 92 100 105 109 105 98 95 93 92 88 86 87 92 99 107 112 114 115 104 89 67 37 30 46 67 79 67 57 52 30 33 102 139 132 135 138 140 145 155 177 190 200 212 215 219 215 205 210 233 241 257 253 225 221 225 253 283
349 345 346 344 338 335 336 340 337 349 4 8 16 23 33 32 26 27 35 39 44 54 58 67 76 79 82 86 91 99 107 115 112 103 98 94 91 86 83 86 90 96 99 98 95 86 73 60 44 33 28 30 29 24 26 23 34 49 83 122 136 128 125 128 130 128 137 176 194 199 207 213 220 206 198 213 235 237 260 275 268 252 254 270 281
349 344 345 343 336 333 334 339 339 351 7 14 24 39 46 37 34 40 44 45 52 61 64 71 80 83 84 86 93 99 105 110 109 106 104 98 92 89 89 90 91 93 89 84 80 71 61 48 35 32 28 22 17 15 15 29 67 94 106 118 128 123 117 112 107 119 146 160 171 196 204 207 214 198 196 215 243 263 279 274 261 258 268 276 279
348 343 344 342 335 331 334 340 339 353 11 22 39 52 49 43 50 55 52 56 62 65 65 73 83 86 89 91 93 96 100 104 106 107 107 102 95 91 90 92 96 94 87 80 76 68 57 46 41 40 37 34 38 46 57 76 93 103 109 115 120 114 106 99 99 125 133 121 132 183 203 202 209 206 205 218 243 266 268 261 259 265 274 274 273
347 342 342 340 334 330 334 341 341 0 15 34 56 57 52 55 65 64 61 66 68 67 71 80 87 90 92 92 92 93 96 100 104 105 103 99 93 90 90 91 94 89 81 77 74 69 65 64 63 63 63 65 70 76 81 89 96 102 107 112 115 104 81 74 86 122 110 103 126 151 181 194 205 212 216 220 232 248 252 254 261 271 276 271 265
345 341 340 338 332 327 329 343 351 12 23 50 67 61 60 68 73 71 72 74 75 78 83 89 91 91 91 90 90 91 94 97 101 102 97 93 90 91 90 89 89 85 79 78 79 78 78 77 75 73 72 73 75 78 82 88 94 101 107 112 116 104 78 58 59 119 119 141 150 144 167 182 186 187 198 206 217 239 254 264 269 271 267 259 258
344 340 338 335 329 321 322 349 17 34 40 66 72 66 69 74 78 81 84 85 87 90 93 95 94 92 91 91 89 87 91 96 98 99 95 88 85 87 91 90 88 87 86 85 84 83 82 80 78 74 73 73 74 77 79 84 90 96 103 109 114 110 101 107 184 148 146 161 157 146 150 165 166 161 174 194 211 230 285 291 272 265 257 250 252
341 337 335 332 325 313 312 7 63 69 71 75 73 71 74 82 89 92 95 96 96 97 99 100 96 94 93 92 89 86 90 93 93 97 97 92 86 85 92 93 89 90 91 88 86 84 84 81 79 77 76 75 74 75 77 79 83 88 94 101 107 107 109 115 117 156 163 153 149 144 136 134 130 132 160 221 239 228 203 232 248 248 242 238 230
339 335 332 328 320 300 301 47 95 99 92 82 77 74 83 96 100 101 103 102 102 101 100 100 100 98 96 93 91 90 93 94 93 97 99 97 91 87 91 94 91 90 89 88 86 86 88 86 82 81 79 77 75 75 76 76 78 81 86 91 99 103 105 104 97 113 128 127 131 131 132 131 129 129 138 156 172 175 180 194 206 202 199 199 197
335 332 331 325 311 284 287 96 113 114 104 95 81 81 99 108 108 108 108 106 105 104 100 98 100 100 95 91 92 93 97 99 99 98 98 99 95 91 91 94 92 87 84 84 83 84 87 86 81 79 76 75 76 76 75 76 77 79 82 85 93 99 99 97 98 102 104 109 114 115 119 121 124 124 120 116 113 112 115 120 123 130 143 159 176
332 331 334 321 293 262 257 123 125 121 111 104 90 96 113 116 113 113 110 108 108 106 103 100 100 101 97 94 94 97 100 102 102 99 98 98 95 91 90 91 89 83 80 79 78 79 82 81 79 77 75 74 75 77 77 77 79 80 82 84 89 93 92 89 91 93 93 96 98 100 102 101 101 100 99 97 96 94 93 94 98 104 112 123 135
330 334 8 314 256 228 185 136 133 125 118 112 102 113 122 120 117 116 113 111 110 107 107 105 103 105 105 105 106 106 105 102 100 98 97 97 93 90 90 86 84 82 79 79 79 78 78 79 79 79 79 78 78 79 81 81 81 81 82 83 85 89 89 87 85 86 85 86 87 88 89 89 89 88 87 86 87 86 86 86 86 88 91 93 93
330 77 100 273 232 190 156 144 136 128 123 117 112 123 127 123 120 117 114 113 112 110 108 107 105 105 106 110 114 114 114 109 103 99 96 96 93 92 90 84 82 82 81 81 81 81 81 81 83 83 82 82 82 81 82 82 81 82 82 82 83 85 87 86 84 82 82 82 82 82 82 82 82 82 82 81 81 82 82 82 81 81 81 81 81
336 123 113 202 216 171 154 148 139 131 126 120 120 131 132 126 123 117 114 113 112 113 110 108 106 104 103 105 109 111 116 117 110 104 99 97 94 90 86 83 82 82 81 83 84 84 85 85 84 84 83 82 81 81 80 80 80 80 79 80 80 81 82 83 82 81 79 79 78 78 78 77 78 78 78 78 78 79 79 79 79 79 79 79 79
112 125 118 180 200 165 153 148 141 134 129 125 127 136 136 130 126 120 116 113 111 110 110 108 106 104 103 104 107 109 113 115 110 106 104 101 96 91 85 82 83 83 83 83 84 84 84 84 83 82 81 80 79 78 78 77 77 76 76 76 76 77 77 77 77 76 74 73 72 73 73 73 73 73 73 74 75 76 77 77 78 78 77 78 79
130 122 124 177 190 161 152 148 142 137 133 130 133 141 141 135 130 125 119 113 109 107 106 106 104 103 103 104 108 112 114 114 110 107 106 104 99 94 88 84 83 84 84 81 81 81 80 80 79 78 78 77 77 76 76 75 74 73 73 72 72 72 72 71 71 71 69 68 66 65 65 66 67 67 68 69 70 72 73 73 74 74 74 74 74
128 118 133 174 180 160 153 150 143 140 138 134 139 145 145 141 135 130 124 114 107 103 101 101 100 98 98 101 108 117 118 114 113 110 108 105 99 94 89 85 85 84 81 79 78 77 77 76 75 74 74 74 74 74 74 73 72 70 70 70 69 68 67 66 66 66 65 63 61 59 58 58 58 59 59 60 62 64 67 68 68 69 69 69 68
122 119 144 173 170 160 155 151 146 143 142 139 142 148 149 145 141 136 129 118 107 99 95 95 95 94 93 94 102 116 122 117 113 110 108 104 97 93 87 86 87 85 81 78 76 74 74 74 73 73 72 72 72 72 71 70 70 69 68 67 66 66 65 64 63 62 62 59 57 54 51 51 51 50 51 51 52 53 57 60 62 63 63 63 63
115 124 151 169 163 160 158 152 148 145 145 143 144 150 152 149 145 140 135 124 112 100 93 91 92 92 90 89 97 116 127 123 115 109 107 102 97 92 87 89 89 84 80 77 76 75 74 73 73 72 72 71 70 70 69 68 67 66 65 64 64 63 63 61 60 59 59 57 55 51 46 45 46 45 45 45 45 45 47 50 54 56 57 56 56
116 131 156 166 159 160 160 152 148 147 148 146 146 151 154 152 149 145 140 131 119 104 95 92 92 93 92 91 98 115 123 120 115 109 104 100 96 92 89 90 88 83 81 79 77 76 75 73 72 72 71 71 70 69 69 67 66 64 63 62 61 60 59 58 56 54 53 52 51 50 45 42 42 41 41 42 41 41 40 41 44 47 50 51 50
122 143 160 164 160 160 158 152 148 148 150 149 148 152 155 155 153 149 144 137 125 110 99 95 94 96 96 96 100 109 114 113 111 105 100 99 95 93 93 90 85 86 87 83 78 76 75 75 73 71 71 70 69 67 67 66 65 63 62 60 59 58 56 55 52 49 47 45 45 44 41 39 37 36 38 38 37 38 38 37 38 40 43 46 48
131 154 164 163 162 160 157 152 149 149 152 152 150 151 154 155 156 154 148 140 130 116 106 100 99 100 101 101 102 106 109 110 109 103 99 100 96 94 96 92 88 90 88 83 79 76 75 75 73 71 69 68 67 66 65 64 63 62 61 60 58 57 54 52 49 46 43 41 40 38 37 35 33 31 33 33 31 33 34 35 36 36 37 39 41
138 165 167 163 164 160 155 151 149 151 153 153 151 151 153 154 156 156 152 145 135 124 114 105 103 105 106 105 105 106 107 108 108 106 103 99 97 99 97 95 96 92 84 80 80 79 76 73 72 70 68 67 65 63 63 63 62 61 60 59 57 56 53 49 46 42 39 37 36 35 33 33 31 29 28 27 25 25 27 28 30 31 32 30 31
143 173 170 163 166 161 155 151 150 152 155 155 152 151 152 152 153 155 153 149 141 134 123 110 106 109 110 109 108 107 106 107 106 106 105 100 98 100 99 97 97 90 82 80 81 81 78 73 71 69 66 64 63 62 63 62 61 60 58 57 55 53 50 46 42 39 36 34 32 31 30 29 29 28 25 24 23 21 20 19 19 17 16 15 13
150 175 175 166 168 164 156 152 151 153 156 156 153 152 153 153 153 153 152 149 146 141 129 115 111 113 112 110 109 108 106 106 105 105 106 104 102 100 98 98 95 88 85 85 83 80 78 75 72 69 65 63 62 62 62 62 61 60 58 56 53 50 47 43 39 36 33 31 30 30 29 28 28 29 30 29 28 27 25 22 20 15 8 2 357
153 172 179 168 168 166 158 152 152 154 157 157 154 153 154 155 155 153 152 151 150 145 132 119 115 116 113 110 108 108 106 105 104 105 105 104 104 101 98 98 95 90 86 86 85 80 76 75 74 71 67 66 64 62 62 61 60 59 57 55 51 48 44 40 37 34 32 30 30 31 32 33 33 34 35 36 36 36 35 33 30 24 16 7 358
158 163 170 165 168 168 159 153 153 155 158 158 156 156 156 157 157 156 155 155 154 147 134 124 120 118 114 110 106 104 103 103 103 104 105 104 104 103 101 98 94 92 88 84 85 82 76 74 74 71 66 65 64 63 62 61 59 58 55 53 50 46 42 38 35 33 31 30 31 33 36 38 38 38 39 39 39 39 38 37 34 30 25 17 7
169 161 165 163 166 169 161 155 156 156 158 160 159 159 159 160 161 161 160 159 156 148 137 129 123 119 114 109 105 103 102 102 102 104 108 109 107 105 102 98 93 92 91 86 82 81 78 75 73 69 64 63 64 63 63 61 59 57 54 51 48 45 41 37 34 31 30 30 32 35 38 40 41 39 38 37 37 36 35 33 31 27 23 18 10
182 170 169 166 165 170 166 159 159 160 160 162 163 162 162 163 165 165 165 163 157 149 140 132 125 120 114 109 106 104 104 103 104 106 109 111 109 107 101 96 93 90 89 87 82 79 77 72 70 68 64 64 64 63 62 60 57 54 51 48 45 42 40 36 33 31 30 30 32 36 39 41 41 40 38 36 35 33 31 28 24 21 16 12 5
183 178 174 174 169 171 170 165 163 164 163 164 164 165 165 166 167 169 168 165 159 151 142 134 126 120 114 110 107 105 105 105 105 107 110 112 110 107 102 96 92 89 87 86 83 81 78 72 69 68 66 65 63 62 60 56 53 50 47 45 42 40 37 35 32 30 29 29 32 36 39 41 41 39 37 35 33 31 28 25 22 18 12 6 0
171 177 178 184 176 172 175 171 166 166 166 165 166 167 168 168 168 170 169 166 160 152 144 135 128 122 116 111 108 106 105 105 107 108 110 111 110 107 102 97 93 90 88 86 84 84 84 81 77 72 67 65 62 58 55 52 49 47 44 41 39 37 35 33 31 30 29 28 31 34 37 39 40 38 36 34 32 30 27 24 21 17 13 7 1
161 170 180 193 186 179 179 176 170 168 167 167 169 170 171 172 170 170 169 165 159 152 144 137 131 125 119 115 111 109 107 107 108 109 111 111 109 106 101 96 93 92 91 89 87 86 84 84 82 74 67 63 59 55 51 48 45 42 40 38 35 33 32 31 31 30 29 28 29 31 34 36 36 35 34 33 31 29 26 22 20 18 14 10 7
166 171 175 189 194 187 182 180 175 170 169 170 172 173 174 174 171 168 166 162 158 153 147 140 134 127 122 117 113 110 108 108 108 110 111 110 108 104 99 95 94 95 94 93 92 89 85 83 81 75 67 61 57 53 48 44 42 39 37 34 32 31 30 30 29 29 29 28 27 29 31 32 34 33 32 31 30 28 25 22 21 20 16 15 15
176 176 176 183 197 196 187 183 180 174 171 170 172 174 175 174 171 168 166 164 161 156 150 143 137 131 126 121 116 112 109 108 108 110 111 111 109 105 101 98 97 99 99 99 99 95 90 84 79 74 67 59 53 49 43 40 38 35 33 32 29 28 28 29 28 28 29 27 26 27 28 29 32 33 31 30 29 26 24 23 23 22 20 21 24
185 181 182 183 192 200 194 188 184 181 176 172 171 173 175 174 173 172 170 167 162 158 154 150 145 140 135 130 123 117 115 112 110 111 113 115 113 109 106 104 102 102 102 102 101 97 92 83 75 69 61 54 48 42 37 34 32 31 30 29 27 26 27 28 28 27 28 27 26 26 26 27 30 32 31 30 28 26 24 23 24 24 24 26 28
194 182 182 186 186 195 201 194 188 187 182 176 175 175 176 177 176 175 172 169 166 163 161 157 153 150 145 141 134 127 124 121 118 116 118 121 120 117 113 109 107 105 102 100 98 95 87 77 66 58 50 45 39 35 32 29 26 27 27 27 26 25 26 27 26 27 27 27 25 25 25 26 29 30 31 30 28 27 25 23 23 25 26 28 28
198 189 183 187 187 188 198 199 194 192 188 184 182 180 180 180 179 177 174 172 172 170 168 166 163 161 157 152 143 137 134 130 126 123 124 126 126 124 120 115 110 105 102 98 94 88 77 65 50 42 37 32 29 27 25 23 22 24 25 24 25 25 25 25 25 25 27 27 25 24 24 25 27 29 30 30 27 26 25 23 24 26 27 30 31
195 201 193 189 188 188 190 197 198 195 193 191 190 188 186 184 182 180 178 177 177 176 176 176 175 173 173 169 161 152 146 140 135 131 130 131 132 132 129 126 119 112 104 95 88 79 67 51 37 27 23 19 19 20 18 18 20 23 23 23 24 24 23 22 22 23 26 26 25 23 23 25 26 27 29 30 27 25 24 23 24 26 28 32 34
Height
11001 10997 10992 10988 10985 10981 10979 10977 10975 10972 10970 10968 10967 10966 10966 10966 10964 10962 10961 10960 10959 10957 10954 10952 10951 10950 10949 10949 10948 10948 10948 10947 10946 10946 10945 10944 10943 10943 10944 10944 10945 10946 10946 10947 10948 10948 10949 10950 10950 10950 10951 10951 10951 10950 10951 10951 10951 10951 10951 10951 10952 10952 10952 10952 10952 10951 10950 10950 10949 10949 10949 10949 10949 10949 10950 10950 10950 10950 10948 10946 10945 10945 10949 10951 10950
10999 10995 10991 10987 10984 10981 10978 10975 10973 10971 10969 10968 10967 10967 10966 10965 10963 10962 10961 10960 10958 10955 10953 10952 10951 10950 10950 10949 10949 10948 10948 10947 10947 10946 10945 10944 10943 10943 10944 10944 10945 10946 10947 10948 10948 10949 10949 10949 10950 10950 10950 10950 10950 10950 10950 10950 10951 10951 10951 10952 10952 10952 10950 10950 10950 10950 10951 10950 10950 10950 10950 10950 10949 10950 10950 10950 10950 10950 10949 10948 10946 10944 10946 10949 10949
10998 10994 10990 10986 10983 10980 10977 10974 10972 10971 10970 10969 10968 10967 10966 10964 10963 10961 10960 10959 10956 10954 10952 10951 10951 10950 10950 10950 10950 10949 10948 10947 10947 10946 10945 10944 10944 10944 10944 10944 10945 10946 10947 10948 10948 10949 10949 10949 10949 10949 10948 10948 10949 10949 10949 10949 10950 10951 10951 10952 10952 10951 10948 10948 10950 10951 10951 10950 10950 10950 10950 10949 10949 10949 10949 10949 10950 10949 10949 10948 10948 10944 10943 10945 10947
10997 10992 10988 10985 10982 10979 10976 10974 10972 10971 10970 10969 10968 10967 10965 10963 10962 10961 10959 10957 10955 10953 10952 10951 10951 10950 10950 10950 10949 10949 10948 10947 10947 10947 10946 10945 10945 10944 10944 10945 10945 10946 10947 10948 10948 10949 10949 10949 10949 10948 10948 10947 10947 10948 10948 10949 10950 10950 10951 10952 10952 10951 10947 10948 10950 10951 10951 10950 10949 10949 10949 10949 10949 10949 10949 10950 10950 10949 10949 10949 10949 10947 10944 10945 10947
10994 10990 10987 10984 10981 10979 10976 10974 10972 10971 10970 10969 10968 10966 10964 10963 10961 10960 10959 10957 10955 10953 10952 10951 10951 10950 10950 10950 10949 10949 10949 10948 10948 10947 10946 10945 10945 10945 10945 10945 10946 10947 10947 10948 10948 10949 10949 10949 10949 10948 10948 10947 10947 10948 10949 10949 10950 10950 10951 10951 10952 10950 10947 10949 10950 10951 10950 10949 10948 10948 10948 10948 10949 10949 10950 10950 10950 10950 10950 10949 10949 10948 10947 10946 10948
10992 10989 10985 10982 10980 10978 10976 10974 10972 10971 10970 10969 10968 10966 10964 10963 10962 10961 10959 10957 10955 10954 10952 10951 10951 10950 10950 10950 10950 10950 10949 10948 10947 10946 10945 10944 10945 10945 10945 10946 10946 10947 10947 10948 10948 10948 10949 10949 10949 10949 10949 10948 10948 10948 10949 10949 10949 10950 10950 10950 10949 10948 10947 10949 10950 10951 10950 10948 10946 10946 10947 10948 10949 10949 10950 10949 10950 10950 10950 10949 10949 10949 10947 10946 10947
10992 10988 10984 10981 10978 10976 10974 10973 10972 10971 10970 10969 10968 10966 10965 10963 10962 10961 10959 10957 10956 10954 10953 10952 10951 10950 10950 10950 10950 10950 10949 10947 10946 10945 10945 10945 10945 10946 10946 10946 10947 10947 10947 10948 10948 10948 10949 10949 10949 10949 10949 10949 10949 10949 10949 10949 10949 10949 10948 10948 10947 10946 10946 10947 10949 10950 10949 10947 10944 10945 10946 10947 10948 10948 10949 10949 10949 10950 10950 10950 10949 10948 10947 10945 10947
10992 10988 10984 10981 10977 10975 10973 10971 10971 10970 10970 10968 10967 10965 10964 10963 10962 10961 10959 10958 10956 10955 10953 10952 10951 10950 10950 10950 10950 10950 10949 10947 10947 10947 10947 10947 10946 10946 10946 10947 10947 10947 10948 10948 10948 10948 10949 10949 10949 10949 10949 10949 10949 10948 10948 10948 10947 10947 10947 10946 10945 10945 10945 10946 10948 10949 10949 10945 10942 10944 10946 10946 10948 10948 10948 10948 10948 10950 10950 10950 10949 10947 10946 10945 10946
10992 10989 10985 10981 10978 10976 10973 10971 10971 10970 10970 10969 10967 10966 10964 10963 10962 10961 10960 10959 10957 10956 10954 10953 10952 10951 10951 10951 10950 10950 10949 10948 10949 10948 10947 10947 10946 10947 10946 10947 10947 10948 10948 10948 10948 10949 10949 10949 10949 10949 10949 10949 10948 10948 10947 10947 10947 10946 10945 10945 10944 10945 10946 10945 10946 10947 10949 10947 10943 10944 10946 10947 10948 10948 10948 10948 10948 10950 10950 10950 10948 10947 10946 10945 10946
10992 10989 10985 10982 10979 10977 10974 10973 10972 10972 10971 10970 10969 10967 10966 10964 10963 10962 10961 10959 10958 10956 10955 10954 10953 10952 10952 10951 10951 10951 10949 10948 10949 10949 10947 10947 10947 10947 10947 10947 10947 10947 10948 10948 10949 10949 10950 10949 10949 10949 10949 10948 10947 10947 10946 10946 10945 10945 10944 10943 10943 10944 10945 10944 10943 10945 10948 10948 10944 10944 10946 10947 10948 10948 10948 10948 10949 10950 10950 10949 10947 10946 10946 10945 10947
10991 10988 10985 10982 10980 10978 10976 10975 10974 10974 10972 10971 10970 10968 10966 10965 10964 10963 10961 10960 10959 10957 10956 10954 10953 10953 10952 10952 10952 10952 10951 10949 10949 10950 10948 10948 10948 10948 10948 10948 10947 10947 10947 10947 10949 10950 10950 10950 10949 10949 10948 10947 10946 10946 10945 10945 10944 10944 10943 10941 10941 10942 10943 10942 10941 10943 10947 10949 10945 10943 10946 10946 10947 10948 10948 10948 10949 10950 10950 10949 10947 10946 10945 10945 10947
10990 10987 10984 10982 10980 10978 10976 10975 10975 10974 10973 10971 10970 10968 10967 10966 10965 10963 10962 10960 10959 10958 10956 10955 10954 10954 10953 10953 10953 10955 10954 10950 10950 10951 10950 10949 10948 10948 10949 10948 10948 10948 10947 10948 10949 10950 10951 10950 10950 10949 10948 10947 10946 10945 10944 10944 10943 10942 10941 10940 10939 10941 10942 10942 10941 10943 10946 10948 10945 10943 10944 10945 10946 10947 10948 10948 10949 10949 10949 10948 10946 10946 10944 10945 10947
10989 10986 10983 10980 10978 10977 10975 10975 10975 10974 10972 10971 10970 10968 10967 10966 10965 10964 10962 10961 10960 10958 10957 10956 10955 10955 10954 10954 10954 10956 10956 10953 10952 10952 10951 10950 10950 10949 10950 10949 10948 10948 10949 10950 10950 10951 10951 10951 10951 10949 10948 10947 10945 10945 10944 10943 10942 10942 10941 10938 10938 10940 10942 10942 10942 10943 10945 10946 10946 10945 10945 10945 10946 10947 10948 10949 10949 10949 10948 10946 10946 10945 10944 10945 10947
10988 10985 10982 10980 10978 10976 10975 10974 10974 10974 10972 10971 10970 10969 10968 10967 10966 10964 10963 10962 10961 10959 10958 10957 10956 10956 10955 10955 10956 10957 10958 10955 10953 10953 10953 10952 10951 10951 10951 10950 10950 10950 10951 10951 10952 10952 10952 10951 10951 10949 10948 10946 10945 10944 10943 10942 10942 10942 10941 10938 10937 10940 10941 10941 10942 10943 10944 10944 10945 10946 10945 10945 10946 10946 10947 10948 10948 10947 10946 10945 10945 10944 10943 10945 10947
10989 10986 10983 10980 10978 10977 10975 10975 10974 10974 10972 10971 10970 10969 10969 10968 10966 10965 10964 10963 10962 10961 10960 10959 10958 10957 10957 10957 10957 10957 10959 10958 10956 10955 10954 10954 10953 10952 10952 10952 10952 10952 10952 10953 10953 10953 10952 10951 10950 10949 10947 10946 10944 10943 10942 10941 10941 10942 10941 10938 10937 10939 10941 10941 10942 10942 10943 10943 10944 10944 10944 10945 10945 10945 10946 10947 10947 10946 10945 10944 10944 10943 10944 10945 10947
10989 10986 10984 10981 10980 10978 10976 10975 10975 10974 10973 10972 10971 10970 10970 10969 10967 10966 10965 10964 10963 10963 10962 10961 10960 10959 10958 10957 10958 10958 10959 10958 10957 10957 10956 10955 10955 10954 10954 10954 10954 10954 10954 10954 10954 10954 10953 10952 10950 10948 10947 10945 10943 10942 10941 10941 10941 10942 10941 10940 10938 10939 10941 10942 10942 10942 10942 10942 10943 10944 10944 10944 10944 10944 10945 10946 10945 10944 10944 10943 10943 10943 10944 10946 10946
10989 10986 10984 10982 10981 10979 10978 10976 10976 10975 10974 10973 10972 10971 10971 10970 10969 10967 10967 10966 10965 10964 10963 10963 10962 10961 10959 10959 10959 10959 10959 10959 10959 10958 10958 10957 10957 10957 10957 10956 10956 10956 10956 10956 10956 10955 10954 10953 10951 10949 10947 10945 10944 10942 10941 10941 10941 10942 10942 10941 10940 10940 10941 10943 10943 10942 10942 10943 10943 10943 10943 10944 10944 10944 10944 10945 10945 10943 10943 10942 10942 10943 10945 10946 10946
10989 10987 10984 10983 10981 10980 10978 10977 10976 10975 10975 10974 10973 10973 10972 10971 10970 10969 10968 10968 10967 10966 10965 10964 10964 10963 10962 10962 10961 10961 10961 10960 10960 10960 10960 10959 10959 10959 10959 10959 10959 10959 10959 10959 10958 10957 10956 10955 10952 10950 10948 10947 10945 10944 10942 10942 10942 10942 10943 10942 10942 10940 10940 10941 10942 10943 10943 10943 10943 10943 10943 10943 10943 10944 10944 10945 10945 10944 10943 10942 10942 10943 10944 10945 10946
10988 10986 10984 10983 10982 10981 10979 10978 10977 10976 10976 10975 10975 10974 10973 10972 10972 10971 10970 10969 10968 10968 10967 10967 10966 10966 10965 10964 10964 10963 10963 10962 10962 10962 10962 10962 10961 10962 10962 10962 10962 10962 10961 10961 10961 10959 10958 10957 10955 10952 10950 10949 10947 10945 10943 10942 10942 10943 10944 10944 10944 10943 10942 10940 10941 10943 10944 10944 10943 10943 10943 10943 10943 10944 10945 10945 10945 10944 10942 10941 10941 10942 10944 10944 10945
10988 10986 10984 10983 10982 10981 10980 10979 10978 10977 10977 10977 10976 10975 10974 10974 10973 10972 10972 10971 10971 10970 10970 10969 10969 10968 10968 10967 10967 10967 10966 10965 10964 10964 10964 10964 10964 10965 10965 10965 10965 10965 10964 10963 10962 10961 10960 10959 10957 10955 10953 10952 10949 10947 10945 10944 10944 10944 10945 10946 10946 10947 10948 10946 10944 10945 10945 10944 10944 10944 10944 10944 10944 10944 10945 10945 10943 10941 10939 10939 10940 10942 10943 10944 10945
10987 10985 10984 10983 10982 10981 10980 10980 10979 10979 10978 10978 10978 10976 10976 10975 10974 10974 10974 10974 10973 10973 10972 10972 10971 10971 10971 10970 10970 10970 10970 10969 10969 10968 10968 10968 10968 10968 10968 10968 10969 10968 10967 10966 10965 10964 10962 10962 10960 10959 10957 10956 10954 10951 10948 10947 10946 10946 10946 10947 10948 10950 10954 10955 10951 10949 10947 10947 10946 10946 10946 10945 10945 10945 10944 10943 10942 10940 10940 10941 10942 10942 10943 10944 10946
10986 10985 10983 10983 10982 10982 10981 10980 10980 10980 10980 10980 10979 10978 10977 10977 10976 10976 10976 10976 10976 10975 10975 10974 10974 10974 10973 10973 10974 10975 10974 10973 10974 10973 10972 10972 10972 10971 10971 10972 10972 10971 10970 10969 10969 10967 10966 10966 10965 10963 10962 10960 10957 10954 10952 10950 10949 10949 10949 10949 10950 10953 10957 10958 10956 10953 10951 10950 10949 10949 10948 10948 10947 10947 10946 10944 10943 10942 10942 10943 10943 10943 10944 10944 10946
10985 10984 10983 10983 10983 10982 10981 10981 10981 10981 10981 10981 10980 10980 10979 10979 10978 10979 10979 10978 10978 10978 10977 10977 10976 10976 10975 10976 10978 10978 10978 10977 10977 10977 10976 10976 10976 10975 10975 10975 10975 10974 10973 10972 10972 10970 10969 10969 10967 10965 10963 10961 10958 10956 10956 10955 10954 10954 10953 10953 10954 10955 10957 10958 10957 10956 10955 10953 10952 10951 10951 10950 10949 10949 10948 10946 10945 10945 10944 10944 10944 10944 10945 10945 10946
10984 10983 10983 10983 10983 10983 10982 10982 10982 10982 10982 10982 10982 10981 10982 10981 10981 10981 10981 10981 10981 10980 10980 10980 10980 10979 10978 10981 10982 10982 10982 10981 10981 10980 10979 10979 10979 10979 10979 10978 10977 10976 10976 10974 10973 10971 10970 10969 10967 10965 10964 10963 10962 10960 10961 10961 10960 10959 10958 10958 10958 10957 10958 10958 10958 10958 10957 10956 10954 10953 10952 10952 10951 10950 10949 10948 10947 10946 10946 10946 10946 10946 10946 10946 10947
10984 10983 10983 10983 10983 10983 10983 10983 10983 10983 10983 10984 10983 10983 10984 10983 10983 10983 10983 10984 10984 10983 10983 10983 10983 10983 10982 10985 10987 10986 10986 10985 10984 10983 10982 10982 10982 10983 10982 10982 10980 10979 10978 10976 10975 10973 10972 10970 10969 10969 10969 10969 10968 10967 10967 10966 10965 10965 10964 10963 10962 10961 10960 10961 10961 10960 10959 10959 10957 10956 10955 10954 10953 10952 10951 10950 10949 10948 10947 10947 10947 10947 10947 10947 10947
10983 10983 10983 10983 10984 10983 10983 10983 10984 10984 10985 10985 10985 10985 10986 10986 10986 10985 10985 10986 10986 10986 10986 10986 10986 10986 10985 10986 10988 10988 10988 10989 10988 10987 10986 10985 10985 10986 10986 10985 10984 10982 10981 10980 10979 10977 10977 10976 10975 10975 10975 10975 10973 10972 10971 10970 10970 10969 10968 10968 10966 10965 10964 10963 10963 10963 10962 10962 10960 10959 10958 10957 10956 10955 10953 10952 10951 10950 10949 10949 10949 10949 10949 10948 10948
10983 10982 10983 10984 10984 10984 10984 10984 10985 10985 10986 10986 10986 10987 10988 10988 10988 10988 10988 10988 10989 10989 10989 10988 10988 10987 10987 10988 10988 10989 10990 10990 10990 10988 10988 10988 10988 10988 10989 10989 10988 10987 10987 10985 10984 10983 10982 10981 10980 10979 10979 10977 10976 10975 10974 10974 10973 10973 10972 10971 10970 10969 10968 10967 10967 10966 10966 10965 10963 10962 10961 10960 10959 10958 10956 10955 10955 10953 10952 10951 10951 10951 10950 10950 10950
10983 10983 10983 10984 10985 10984 10984 10985 10986 10986 10987 10987 10988 10989 10990 10990 10990 10990 10990 10991 10991 10991 10991 10991 10990 10990 10990 10990 10991 10992 10992 10992 10991 10990 10990 10991 10991 10992 10993 10992 10990 10991 10991 10990 10988 10987 10986 10985 10983 10982 10980 10979 10978 10977 10977 10976 10976 10975 10975 10974 10973 10972 10971 10971 10970 10969 10968 10967 10966 10965 10964 10963 10962 10961 10960 10959 10958 10957 10956 10955 10954 10953 10953 10953 10952
10983 10983 10983 10984 10985 10985 10985 10986 10986 10987 10988 10989 10989 10991 10992 10992 10992 10992 10992 10993 10993 10994 10994 10994 10993 10993 10992 10993 10994 10995 10995 10995 10994 10993 10993 10993 10994 10995 10996 10994 10992 10993 10993 10992 10991 10990 10989 10988 10986 10984 10983 10981 10981 10980 10979 10979 10979 10978 10977 10977 10976 10975 10974 10973 10972 10971 10970 10969 10969 10968 10967 10965 10964 10964 10963 10962 10961 10960 10958 10958 10957 10956 10956 10955 10955
10984 10983 10984 10985 10985 10986 10986 10986 10987 10988 10989 10990 10991 10992 10993 10994 10994 10994 10994 10995 10996 10996 10996 10996 10995 10995 10995 10995 10996 10997 10998 10997 10997 10997 10997 10997 10997 10997 10997 10995 10995 10995 10994 10993 10993 10992 10991 10990 10989 10987 10986 10984 10983 10983 10982 10982 10981 10981 10980 10979 10979 10978 10977 10976 10975 10974 10973 10972 10972 10971 10969 10968 10967 10966 10965 10964 10963 10962 10961 10960 10959 10958 10958 10957 10957
10985 10984 10984 10985 10986 10986 10986 10987 10988 10989 10990 10991 10992 10994 10995 10995 10995 10996 10996 10997 10998 10998 10998 10998 10997 10997 10997 10997 10997 10999 11000 11000 11000 11000 11000 11000 10999 10999 10999 10998 10997 10997 10996 10995 10995 10994 10993 10993 10992 10991 10989 10988 10987 10986 10985 10985 10985 10984 10983 10982 10982 10981 10980 10979 10978 10977 10976 10975 10974 10973 10972 10971 10970 10968 10967 10966 10965 10964 10963 10961 10961 10960 10959 10959 10958
10985 10985 10985 10986 10986 10987 10987 10988 10988 10989 10991 10992 10994 10995 10996 10997 10997 10997 10998 10999 11000 11001 11001 11000 11000 10999 10999 10998 10999 11000 11001 11002 11002 11002 11002 11002 11002 11001 11001 11001 11000 10999 10998 10998 10997 10997 10996 10995 10995 10994 10993 10992 10991 10990 10989 10988 10988 10987 10987 10986 10985 10984 10983 10982 10981 10980 10979 10978 10976 10975 10974 10973 10972 10971 10970 10968 10967 10966 10965 10963 10962 10961 10961 10960 10959
10986 10986 10986 10986 10987 10988 10988 10988 10989 10990 10991 10993 10995 10996 10998 10998 10999 10999 10999 11000 11002 11003 11003 11002 11002 11002 11001 11001 11001 11002 11003 11003 11004 11004 11004 11004 11004 11003 11003 11003 11003 11002 11001 11000 11000 10999 10998 10998 10997 10996 10996 10995 10995 10993 10992 10992 10991 10990 10990 10989 10988 10987 10986 10985 10984 10983 10982 10980 10979 10978 10977 10976 10975 10974 10972 10971 10969 10968 10967 10966 10964 10963 10962 10961 10960
10987 10987 10987 10987 10987 10988 10989 10989 10989 10990 10992 10994 10995 10997 10999 11000 11000 11001 11001 11002 11004 11004 11005 11005 11004 11004 11004 11004 11004 11004 11005 11005 11006 11007 11007 11006 11006 11005 11005 11005 11005 11004 11003 11002 11002 11001 11001 11001 11000 10999 10999 10998 10998 10996 10995 10994 10994 10993 10993 10992 10991 10990 10990 10989 10987 10986 10985 10983 10982 10981 10980 10978 10977 10976 10974 10973 10971 10970 10969 10968 10967 10965 10964 10963 10962
10988 10988 10988 10988 10988 10989 10989 10990 10990 10991 10993 10995 10996 10998 11000 11001 11002 11003 11003 11004 11005 11006 11007 11007 11007 11007 11007 11006 11006 11006 11007 11007 11008 11009 11010 11009 11008 11008 11007 11007 11007 11007 11005 11004 11004 11004 11004 11003 11002 11002 11002 11001 11000 10999 10998 10997 10997 10996 10995 10995 10994 10993 10992 10991 10990 10989 10987 10986 10984 10983 10981 10980 10978 10977 10976 10974 10973 10972 10971 10970 10969 10968 10967 10966 10965
10989 10989 10989 10989 10989 10990 10990 10991 10991 10992 10994 10996 10997 10999 11001 11003 11004 11004 11005 11006 11007 11008 11009 11009 11009 11009 11009 11009 11009 11009 11009 11009 11010 11011 11013 11012 11011 11011 11010 11009 11009 11009 11008 11007 11006 11006 11007 11006 11005 11005 11005 11004 11003 11002 11001 11001 11000 10999 10998 10997 10997 10996 10995 10994 10992 10991 10989 10987 10986 10984 10982 10981 10979 10978 10977 10975 10974 10973 10972 10971 10970 10969 10969 10968 10967
10990 10990 10990 10990 10990 10991 10991 10991 10992 10993 10995 10997 10999 11000 11002 11003 11005 11006 11007 11007 11008 11009 11010 11011 11011 11011 11011 11011 11011 11011 11011 11012 11012 11013 11014 11014 11014 11013 11012 11012 11011 11011 11011 11011 11010 11009 11009 11009 11008 11008 11007 11007 11007 11006 11005 11004 11003 11002 11001 11000 10999 10998 10997 10996 10994 10992 10990 10988 10986 10984 10983 10981 10980 10978 10977 10976 10975 10974 10973 10971 10970 10970 10969 10968 10967
10991 10991 10991 10991 10991 10992 10992 10992 10993 10994 10996 10998 11000 11001 11003 11004 11005 11007 11008 11009 11010 11010 11011 11012 11013 11013 11013 11013 11013 11013 11013 11014 11014 11015 11016 11016 11016 11016 11015 11014 11013 11013 11013 11014 11013 11012 11012 11011 11011 11010 11011 11011 11010 11009 11008 11007 11006 11004 11004 11003 11002 11000 10999 10997 10996 10994 10992 10989 10987 10985 10983 10981 10980 10979 10977 10977 10975 10974 10973 10972 10970 10969 10968 10967 10967
10992 10992 10992 10992 10992 10993 10993 10994 10994 10995 10998 11000 11001 11002 11004 11005 11006 11007 11008 11010 11011 11012 11013 11013 11014 11014 11014 11015 11015 11015 11015 11015 11016 11016 11016 11017 11018 11019 11018 11017 11016 11015 11015 11015 11015 11015 11015 11014 11013 11013 11014 11014 11013 11012 11011 11010 11008 11007 11006 11004 11003 11002 11001 10999 10998 10995 10993 10991 10988 10986 10984 10982 10981 10979 10978 10977 10976 10975 10974 10972 10970 10969 10968 10967 10966
10993 10993 10993 10993 10994 10995 10995 10995 10996 10997 10998 11001 11002 11004 11005 11006 11007 11008 11009 11010 11011 11013 11014 11015 11015 11016 11016 11016 11017 11017 11017 11017 11018 11018 11017 11018 11020 11021 11020 11019 11018 11017 11017 11017 11018 11017 11017 11016 11015 11014 11016 11016 11015 11015 11013 11012 11011 11009 11008 11006 11005 11004 11002 11001 10999 10997 10995 10992 10989 10987 10985 10983 10982 10981 10980 10979 10977 10976 10974 10973 10971 10970 10968 10967 10965
10994 10994 10994 10994 10995 10996 10996 10997 10998 10998 10999 11002 11003 11005 11006 11007 11008 11009 11010 11011 11013 11014 11015 11016 11017 11017 11018 11018 11018 11018 11019 11019 11020 11020 11020 11020 11022 11022 11021 11021 11021 11020 11020 11021 11020 11019 11018 11017 11016 11016 11017 11018 11017 11016 11015 11014 11013 11012 11010 11009 11007 11005 11004 11002 11001 10999 10996 10994 10991 10989 10987 10985 10984 10982 10981 10980 10978 10977 10975 10974 10972 10970 10969 10967 10965
10995 10995 10995 10995 10996 10996 10997 10998 10999 10999 11000 11002 11004 11006 11007 11008 11009 11010 11011 11013 11014 11015 11017 11017 11018 11018 11019 11019 11020 11020 11021 11021 11021 11022 11022 11022 11022 11023 11022 11023 11023 11023 11023 11023 11022 11021 11019 11018 11018 11018 11019 11019 11019 11018 11017 11016 11015 11014 11012 11010 11009 11007 11006 11004 11002 11000 10998 10996 10993 10991 10989 10987 10985 10984 10983 10981 10979 10978 10976 10974 10973 10971 10969 10966 10964
10996 10996 10996 10996 10996 10997 10998 10998 10999 11000 11001 11003 11005 11007 11008 11009 11010 11012 11013 11014 11015 11017 11018 11019 11019 11020 11020 11021 11021 11022 11022 11022 11023 11023 11023 11023 11023 11024 11024 11024 11024 11025 11025 11025 11024 11024 11023 11022 11021 11021 11021 11021 11020 11020 11019 11018 11017 11016 11014 11012 11010 11009 11007 11006 11004 11002 10999 10997 10995 10993 10991 10989 10987 10986 10985 10983 10981 10979 10977 10975 10973 10971 10968 10966 10964
10996 10997 10997 10997 10997 10997 10998 10999 11000 11001 11002 11004 11006 11008 11009 11010 11012 11013 11014 11016 11017 11018 11019 11020 11020 11021 11021 11022 11022 11023 11023 11024 11024 11025 11025 11025 11025 11025 11025 11025 11026 11026 11026 11026 11027 11027 11027 11026 11024 11023 11023 11023 11022 11022 11021 11020 11019 11017 11016 11014 11012 11011 11009 11007 11005 11003 11001 10999 10996 10994 10992 10991 10989 10988 10986 10984 10982 10980 10978 10976 10974 10971 10968 10966 10963
10996 10997 10997 10998 10998 10998 10999 11000 11001 11002 11004 11005 11007 11009 11010 11012 11013 11014 11015 11017 11018 11019 11020 11021 11021 11022 11023 11023 11024 11024 11025 11025 11025 11026 11026 11026 11026 11026 11026 11026 11027 11027 11028 11028 11028 11029 11029 11028 11026 11026 11025 11025 11024 11023 11022 11022 11020 11019 11017 11016 11014 11012 11011 11009 11007 11004 11002 11000 10997 10996 10994 10992 10991 10989 10987 10985 10983 10981 10979 10977 10974 10971 10968 10965 10963
10997 10997 10997 10998 10998 10998 10999 11000 11002 11003 11004 11006 11008 11010 11011 11013 11014 11015 11016 11018 11019 11020 11021 11021 11022 11023 11024 11025 11025 11026 11026 11026 11026 11027 11027 11027 11027 11027 11027 11028 11028 11028 11028 11029 11029 11030 11030 11029 11029 11028 11027 11027 11026 11025 11024 11023 11021 11020 11019 11017 11016 11014 11012 11010 11008 11006 11004 11001 10999 10997 10995 10993 10992 10990 10988 10986 10984 10982 10980 10977 10974 10971 10968 10965 10963
10997 10997 10997 10998 10999 10999 11000 11001 11002 11004 11005 11006 11008 11010 11012 11013 11014 11015 11016 11018 11019 11020 11021 11022 11023 11024 11025 11026 11026 11027 11027 11027 11028 11028 11028 11029 11029 11028 11028 11028 11029 11029 11029 11030 11030 11030 11030 11030 11030 11029 11029 11028 11027 11026 11025 11024 11022 11021 11020 11018 11017 11015 11013 11011 11009 11007 11005 11002 11000 10998 10996 10995 10994 10992 10990 10987 10985 10983 10980 10978 10975 10972 10969 10966 10964
10997 10997 10997 10998 10998 10999 11000 11001 11002 11004 11005 11007 11008 11010 11011 11013 11014 11015 11017 11018 11019 11021 11022 11023 11024 11025 11026 11027 11027 11028 11028 11029 11029 11029 11030 11030 11030 11030 11029 11029 11030 11030 11030 11031 11031 11031 11031 11031 11031 11030 11030 11029 11028 11027 11026 11024 11023 11022 11021 11019 11018 11016 11014 11012 11010 11008 11006 11004 11001 10999 10998 10996 10995 10993 10991 10989 10987 10984 10981 10979 10976 10973 10970 10967 10965
10997 10997 10998 10998 10998 10999 11000 11001 11002 11004 11005 11007 11008 11009 11011 11012 11014 11016 11017 11019 11020 11021 11023 11024 11025 11026 11027 11028 11028 11029 11029 11030 11030 11030 11031 11031 11031 11031 11031 11031 11031 11031 11031 11032 11032 11032 11032 11032 11031 11031 11030 11030 11029 11027 11026 11025 11024 11023 11021 11020 11018 11017 11015 11013 11011 11009 11007 11005 11003 11000 10999 10997 10995 10994 10992 10990 10988 10986 10983 10981 10978 10975 10972 10969 10967
10997 10997 10997 10998 10998 10998 11000 11001 11002 11004 11005 11007 11008 11009 11010 11012 11014 11016 11018 11019 11021 11022 11023 11024 11026 11027 11028 11029 11029 11030 11031 11031 11031 11031 11032 11032 11032 11032 11032 11032 11032 11032 11033 11033 11033 11032 11032 11032 11032 11032 11031 11030 11029 11028 11027 11026 11025 11024 11022 11021 11019 11017 11016 11014 11012 11010 11008 11006 11003 11001 11000 10998 10997 10996 10994 10992 10989 10987 10985 10982 10979 10977 10973 10971 10969
10997 10997 10997 10997 10997 10998 10999 11000 11002 11003 11004 11006 11007 11009 11010 11012 11014 11016 11018 11020 11021 11022 11023 11025 11026 11027 11028 11029 11030 11031 11031 11032 11032 11032 11032 11033 11033 11033 11032 11032 11033 11033 11033 11033 11033 11033 11033 11033 11032 11032 11032 11031 11030 11029 11028 11027 11025 11024 11023 11021 11020 11018 11016 11015 11013 11011 11009 11006 11004 11002 11001 10999 10998 10997 10995 10993 10991 10988 10986 10984 10981 10979 10976 10973 10971